This is the latest recevied weather packets stored in our database for station/object N6OIM. If no packets are shown the sender has not sent any weather packets the latest 10 day(s).
| Time | Temp. | Humidity | Pressure | Rain* | Wind** | Luminosity | Snow |
|---|---|---|---|---|---|---|---|
| 1777840698 | 19.44° C | 58% | 1010.5 hPa | 0 mm | - | - | - |
| 1777840113 | 19.44° C | 57% | 1010.5 hPa | 0 mm | - | - | - |
| 1777839801 | 19.44° C | 57% | 1010.6 hPa | 0 mm | - | - | - |
| 1777838911 | 18.89° C | 58% | 1010.6 hPa | 0 mm | - | - | - |
| 1777836813 | 18.33° C | 60% | 1010.8 hPa | 0 mm | - | - | - |
| 1777835597 | 18.33° C | 60% | 1011 hPa | 0 mm | - | - | - |
| 1777835306 | 18.33° C | 59% | 1011.1 hPa | 0 mm | - | - | - |
| 1777835018 | 18.33° C | 61% | 1011.1 hPa | 0 mm | - | - | - |
| 1777833795 | 18.33° C | 63% | 1011.2 hPa | 0 mm | - | - | - |
| 1777833194 | 17.78° C | 63% | 1011.2 hPa | 0 mm | - | - | - |
| 1777832907 | 17.78° C | 64% | 1011.2 hPa | 0 mm | - | - | - |
| 1777832616 | 17.22° C | 65% | 1011.1 hPa | 0 mm | - | - | - |
| 1777832305 | 17.22° C | 66% | 1011 hPa | 0 mm | - | - | - |
| 1777832013 | 16.67° C | 66% | 1011 hPa | 0 mm | - | - | - |
| 1777831409 | 16.11° C | 67% | 1011.1 hPa | 0 mm | - | - | - |
| 1777829609 | 16.11° C | 70% | 1011.2 hPa | 0 mm | - | - | - |
| 1777829298 | 16.11° C | 69% | 1011.2 hPa | 0 mm | - | - | - |
| 1777828103 | 15.56° C | 72% | 1010.9 hPa | 0 mm | - | - | - |
| 1777826605 | 15.56° C | 72% | 1010.8 hPa | 0 mm | - | - | - |
| 1777826314 | 15.56° C | 73% | 1010.7 hPa | 0 mm | - | - | - |
| 1777825697 | 15° C | 75% | 1010.8 hPa | 0 mm | - | - | - |
| 1777825405 | 15° C | 76% | 1010.7 hPa | 0 mm | - | - | - |
| 1777825098 | 14.44° C | 76% | 1010.7 hPa | 0 mm | - | - | - |
| 1777824806 | 14.44° C | 76% | 1010.6 hPa | 0 mm | - | - | - |
| 1777824514 | 14.44° C | 77% | 1010.8 hPa | 0 mm | - | - | - |
* Rain latest hour (hover to see other rain measurements)
** Current wind speed in m/s (hover to see current wind gust speed)